,,,PA_Meas_PMT16A,,PR_Meas_QMR101_102,,RH_Meas_QMH101,,SR_Meas_QMS101,,TA_Meas_QMH101,,GenWind,,GenWind,
date,time,status,PA,status,PR,status,RH,status,SR,status,TA,status,DirAvg,status,SpdAvg,
2010-05-10, 00:00:04,VALID,997.44,VALID,0,VALID,92.265,VALID,0,VALID,24.5989,VALID,18,VALID,0.440625,
2010-05-10, 00:01:04,VALID,997.392,VALID,0,VALID,92.265,VALID,0,VALID,24.5989,VALID,18,VALID,0.463672,
2010-05-10, 00:02:04,VALID,997.394,VALID,0,VALID,92.3031,VALID,0,VALID,24.5971,VALID,18,VALID,0.364453,
2010-05-10, 00:03:04,VALID,997.442,VALID,0,VALID,92.2803,VALID,0,VALID,24.6166,VALID,18,VALID,0.264062,
2010-05-10, 00:04:04,VALID,997.409,VALID,0,VALID,92.2497,VALID,0,VALID,24.638,VALID,18,VALID,0.262109,
2010-05-10, 00:05:04,VALID,997.396,VALID,0,VALID,92.1963,VALID,0.112286,VALID,24.5971,VALID,18,VALID,0.33125,
2010-05-10, 00:06:04,VALID,997.391,VALID,0,VALID,92.1124,VALID,0,VALID,24.5971,VALID,18,VALID,0.287891,
2010-05-10, 00:07:04,VALID,997.394,VALID,0,VALID,92.0056,VALID,0,VALID,24.5971,VALID,18,VALID,0.320703,
2010-05-10, 00:08:04,VALID,997.405,VALID,0,VALID,91.8988,VALID,0,VALID,24.5775,VALID,18,VALID,0.411719,
2010-05-10, 00:09:04,VALID,997.389,VALID,0,VALID,91.9293,VALID,0,VALID,24.5989,VALID,18,VALID,0.453125,
2010-05-10, 00:10:04,VALID,997.372,VALID,0,VALID,92.0132,VALID,0,VALID,24.5971,VALID,18,VALID,0.403906,
2010-05-10, 00:11:04,VALID,997.381,VALID,0,VALID,91.9827,VALID,0,VALID,24.6166,VALID,18,VALID,0.448047,
2010-05-10, 00:12:04,VALID,997.356,VALID,0,VALID,91.9369,VALID,0,VALID,24.6556,VALID,18,VALID,0.401172,
2010-05-10, 00:13:04,VALID,997.383,VALID,0,VALID,91.7996,VALID,0,VALID,24.6946,VALID,18,VALID,0.402344,
2010-05-10, 00:14:04,VALID,997.36,VALID,0,VALID,91.6623,VALID,0,VALID,24.6751,VALID,18,VALID,0.371484,
2010-05-10, 00:15:04,VALID,997.361,VALID,0,VALID,91.5631,VALID,0.112286,VALID,24.6946,VALID,18,VALID,0.463672,
2010-05-10, 00:16:04,VALID,997.356,VALID,0,VALID,91.5554,VALID,0,VALID,24.6965,VALID,18,VALID,0.56875,
2010-05-10, 00:17:04,VALID,997.37,VALID,0,VALID,91.6394,VALID,0,VALID,24.677,VALID,18,VALID,0.713672,
2010-05-10, 00:18:04,VALID,997.356,VALID,0,VALID,91.7004,VALID,0,VALID,24.677,VALID,18,VALID,0.776172,
2010-05-10, 00:19:04,VALID,997.362,VALID,0,VALID,91.7004,VALID,0,VALID,24.6984,VALID,18,VALID,0.701953,
2010-05-10, 00:20:04,VALID,997.356,VALID,0,VALID,91.7309,VALID,0,VALID,24.677,VALID,18,VALID,0.610547,
2010-05-10, 00:21:04,VALID,997.356,VALID,0,VALID,91.7614,VALID,0,VALID,24.677,VALID,18,VALID,0.579297,
2010-05-10, 00:22:04,VALID,997.379,VALID,0,VALID,91.7538,VALID,0,VALID,24.6575,VALID,18,VALID,0.585938,
2010-05-10, 00:23:04,VALID,997.37,VALID,0,VALID,91.7614,VALID,0,VALID,24.677,VALID,28,VALID,0.694922,
2010-05-10, 00:24:04,VALID,997.353,VALID,0,VALID,91.7843,VALID,0,VALID,24.6575,VALID,41,VALID,0.825781,
2010-05-10, 00:25:04,VALID,997.35,VALID,0,VALID,91.8683,VALID,0,VALID,24.677,VALID,45,VALID,0.742188,
2010-05-10, 00:26:04,VALID,997.333,VALID,0,VALID,91.998,VALID,0,VALID,24.7179,VALID,46,VALID,0.758203,
2010-05-10, 00:27:04,VALID,997.312,VALID,0,VALID,92.0743,VALID,0,VALID,24.716,VALID,56,VALID,0.840625,
2010-05-10, 00:28:04,VALID,997.307,VALID,0,VALID,92.0895,VALID,0,VALID,24.7356,VALID,63,VALID,0.638281,
2010-05-10, 00:29:04,VALID,997.289,VALID,0,VALID,92.0819,VALID,0,VALID,24.7356,VALID,71,VALID,0.533203,
2010-05-10, 00:30:04,VALID,997.255,VALID,0,VALID,92.0514,VALID,0,VALID,24.757,VALID,71,VALID,0.566016,
2010-05-10, 00:31:04,VALID,997.257,VALID,0,VALID,92.0209,VALID,0,VALID,24.7374,VALID,71,VALID,0.4125,
2010-05-10, 00:32:04,VALID,997.242,VALID,0,VALID,91.9598,VALID,0,VALID,24.7356,VALID,71,VALID,0.524609,
2010-05-10, 00:33:04,VALID,997.233,VALID,0,VALID,91.9293,VALID,0,VALID,24.7356,VALID,71,VALID,0.419141,
2010-05-10, 00:34:04,VALID,997.21,VALID,0,VALID,91.8759,VALID,0,VALID,24.716,VALID,71,VALID,0.246484,
2010-05-10, 00:35:04,VALID,997.205,VALID,0,VALID,91.853,VALID,0,VALID,24.7356,VALID,71,VALID,0.291406,
2010-05-10, 00:36:04,VALID,997.191,VALID,0,VALID,91.8377,VALID,0,VALID,24.7356,VALID,71,VALID,0.141016,
2010-05-10, 00:37:04,VALID,997.205,VALID,0,VALID,91.792,VALID,0,VALID,24.716,VALID,71,VALID,0,
2010-05-10, 00:38:04,VALID,997.188,VALID,0,VALID,91.7843,VALID,0,VALID,24.6965,VALID,71,VALID,0,
2010-05-10, 00:39:04,VALID,997.178,VALID,0,VALID,91.7767,VALID,0,VALID,24.6965,VALID,71,VALID,0,
2010-05-10, 00:40:04,VALID,997.183,VALID,0,VALID,91.8072,VALID,0,VALID,24.6965,VALID,71,VALID,0,
2010-05-10, 00:41:04,VALID,997.165,VALID,0,VALID,91.792,VALID,0,VALID,24.677,VALID,71,VALID,0,
2010-05-10, 00:42:04,VALID,997.164,VALID,0,VALID,91.8072,VALID,0,VALID,24.6575,VALID,71,VALID,0,
2010-05-10, 00:43:04,VALID,997.14,VALID,0,VALID,91.8835,VALID,0,VALID,24.6575,VALID,71,VALID,0,
2010-05-10, 00:44:04,VALID,997.167,VALID,0,VALID,91.8835,VALID,0,VALID,24.6575,VALID,71,VALID,0,
2010-05-10, 00:45:04,VALID,997.149,VALID,0,VALID,91.8377,VALID,0,VALID,24.6575,VALID,71,VALID,0,
2010-05-10, 00:46:04,VALID,997.154,VALID,0,VALID,91.7538,VALID,0,VALID,24.6575,VALID,93,VALID,0,
2010-05-10, 00:47:04,VALID,997.102,VALID,0,VALID,91.6699,VALID,0,VALID,24.6556,VALID,96,VALID,0.577344,
2010-05-10, 00:48:04,VALID,997.136,VALID,0,VALID,91.4715,VALID,0,VALID,24.6965,VALID,97,VALID,0.608594,
2010-05-10, 00:49:04,VALID,997.123,VALID,0,VALID,91.38,VALID,0,VALID,24.7356,VALID,98,VALID,0.666797,
2010-05-10, 00:50:04,VALID,997.147,VALID,0,VALID,91.2655,VALID,0,VALID,24.7551,VALID,98,VALID,0.598047,
2010-05-10, 00:51:04,VALID,997.101,VALID,0,VALID,91.1663,VALID,0,VALID,24.7532,VALID,99,VALID,0.704297,
2010-05-10, 00:52:04,VALID,997.086,VALID,0,VALID,91.2503,VALID,0,VALID,24.7532,VALID,107,VALID,0.735156,
2010-05-10, 00:53:04,VALID,997.085,VALID,0,VALID,91.3113,VALID,0,VALID,24.7746,VALID,110,VALID,0.605469,
2010-05-10, 00:54:04,VALID,997.074,VALID,0,VALID,91.3952,VALID,0,VALID,24.7746,VALID,115,VALID,0.637891,
2010-05-10, 00:55:04,VALID,997.068,VALID,0,VALID,91.4639,VALID,0,VALID,24.7532,VALID,119,VALID,0.582422,
2010-05-10, 00:56:04,VALID,997.06,VALID,0,VALID,91.4715,VALID,0,VALID,24.7532,VALID,119,VALID,0.405859,
2010-05-10, 00:57:04,VALID,997.057,VALID,0,VALID,91.4486,VALID,0,VALID,24.7337,VALID,119,VALID,0.317187,
2010-05-10, 00:58:04,VALID,997.031,VALID,0,VALID,91.4563,VALID,0,VALID,24.7551,VALID,119,VALID,0.238672,
2010-05-10, 00:59:04,VALID,997.016,VALID,0,VALID,91.4868,VALID,0,VALID,24.7337,VALID,119,VALID,0.250391,
2010-05-10, 01:00:04,VALID,997.008,VALID,0,VALID,91.4944,VALID,0,VALID,24.7142,VALID,119,VALID,0.214453,
2010-05-10, 01:01:04,VALID,997.018,VALID,0,VALID,91.4944,VALID,0,VALID,24.7356,VALID,119,VALID,0.139844,
2010-05-10, 01:02:04,VALID,997.019,VALID,0,VALID,91.4486,VALID,0,VALID,24.7356,VALID,119,VALID,0.216797,
2010-05-10, 01:03:04,VALID,997.029,VALID,0,VALID,91.4181,VALID,0,VALID,24.7356,VALID,119,VALID,0,
2010-05-10, 01:04:04,VALID,997.006,VALID,0,VALID,91.3647,VALID,0,VALID,24.7142,VALID,119,VALID,0.310547,
2010-05-10, 01:05:04,VALID,996.985,VALID,0,VALID,91.3037,VALID,0,VALID,24.7337,VALID,119,VALID,0,
2010-05-10, 01:06:04,VALID,997.017,VALID,0,VALID,91.2655,VALID,0,VALID,24.7551,VALID,119,VALID,0,
2010-05-10, 01:07:04,VALID,997.001,VALID,0,VALID,91.2274,VALID,0,VALID,24.7551,VALID,119,VALID,0,
2010-05-10, 01:08:04,VALID,997.006,VALID,0,VALID,91.1511,VALID,0,VALID,24.7337,VALID,119,VALID,0,
2010-05-10, 01:09:04,VALID,996.984,VALID,0,VALID,91.029,VALID,0,VALID,24.7551,VALID,119,VALID,0,
2010-05-10, 01:10:04,VALID,997.008,VALID,0,VALID,90.8306,VALID,0,VALID,24.7337,VALID,126,VALID,0,
2010-05-10, 01:11:04,VALID,996.988,VALID,0,VALID,90.7085,VALID,0,VALID,24.7532,VALID,134,VALID,0.577344,
2010-05-10, 01:12:04,VALID,996.981,VALID,0,VALID,90.5941,VALID,0,VALID,24.7941,VALID,138,VALID,0.557031,
2010-05-10, 01:13:04,VALID,996.935,VALID,0,VALID,90.5026,VALID,0,VALID,24.8117,VALID,138,VALID,0.314844,
2010-05-10, 01:14:04,VALID,996.947,VALID,0,VALID,90.4186,VALID,0,VALID,24.7922,VALID,133,VALID,0.319531,
2010-05-10, 01:15:04,VALID,996.953,VALID,0,VALID,90.411,VALID,0,VALID,24.7922,VALID,133,VALID,0.441016,
2010-05-10, 01:16:04,VALID,996.962,VALID,0,VALID,90.3805,VALID,0,VALID,24.8117,VALID,117,VALID,0.664844,
2010-05-10, 01:17:04,VALID,996.947,VALID,0,VALID,90.3881,VALID,0,VALID,24.8332,VALID,121,VALID,0.583203,
2010-05-10, 01:18:04,VALID,996.944,VALID,0,VALID,90.3881,VALID,0,VALID,24.8117,VALID,122,VALID,0.495313,
2010-05-10, 01:19:04,VALID,996.956,VALID,0,VALID,90.3881,VALID,0.112286,VALID,24.8313,VALID,130,VALID,0.608203,
2010-05-10, 01:20:04,VALID,996.962,VALID,0,VALID,90.3271,VALID,0,VALID,24.8527,VALID,142,VALID,0.725781,
2010-05-10, 01:21:04,VALID,996.957,VALID,0,VALID,90.3042,VALID,0,VALID,24.8508,VALID,129,VALID,0.66875,
2010-05-10, 01:22:04,VALID,996.968,VALID,0,VALID,90.2584,VALID,0,VALID,24.8917,VALID,129,VALID,0.657812,
2010-05-10, 01:23:04,VALID,996.943,VALID,0,VALID,90.1745,VALID,0,VALID,24.8917,VALID,129,VALID,0.587891,
2010-05-10, 01:24:04,VALID,996.968,VALID,0,VALID,90.0982,VALID,0,VALID,24.8898,VALID,129,VALID,0.291406,
2010-05-10, 01:25:04,VALID,996.953,VALID,0,VALID,90.0219,VALID,0,VALID,24.9112,VALID,129,VALID,0.211719,
2010-05-10, 01:26:04,VALID,996.959,VALID,0,VALID,89.9761,VALID,0,VALID,24.9112,VALID,129,VALID,0.320313,
2010-05-10, 01:27:04,VALID,996.977,VALID,0,VALID,89.9609,VALID,0,VALID,24.9093,VALID,128,VALID,0.361719,
2010-05-10, 01:28:04,VALID,996.961,VALID,0,VALID,89.9074,VALID,0,VALID,24.9308,VALID,128,VALID,0,
2010-05-10, 01:29:04,VALID,996.937,VALID,0,VALID,89.8311,VALID,0,VALID,24.9308,VALID,128,VALID,0.345703,
2010-05-10, 01:30:04,VALID,996.945,VALID,0,VALID,89.7549,VALID,0,VALID,24.9503,VALID,128,VALID,0.391016,
2010-05-10, 01:31:04,VALID,996.943,VALID,0,VALID,89.732,VALID,0,VALID,24.9308,VALID,128,VALID,0.316406,
2010-05-10, 01:32:04,VALID,996.942,VALID,0,VALID,89.6633,VALID,0,VALID,24.9289,VALID,140,VALID,0.567578,
2010-05-10, 01:33:04,VALID,996.895,VALID,0,VALID,89.4649,VALID,0,VALID,24.9698,VALID,140,VALID,0.505078,
2010-05-10, 01:34:04,VALID,996.894,VALID,0,VALID,89.4802,VALID,0,VALID,24.9698,VALID,140,VALID,0.380469,
2010-05-10, 01:35:04,VALID,996.832,VALID,0,VALID,89.4344,VALID,0,VALID,24.9698,VALID,140,VALID,0.480859,
2010-05-10, 01:36:04,VALID,996.817,VALID,0,VALID,89.4039,VALID,0,VALID,24.9698,VALID,147,VALID,0.485938,
2010-05-10, 01:37:04,VALID,996.802,VALID,0,VALID,89.4115,VALID,0,VALID,24.9893,VALID,165,VALID,0.588672,
2010-05-10, 01:38:04,VALID,996.788,VALID,0,VALID,89.2894,VALID,0,VALID,24.9874,VALID,165,VALID,0.522656,
2010-05-10, 01:39:04,VALID,996.764,VALID,0,VALID,89.1826,VALID,0,VALID,25.0069,VALID,165,VALID,0.561719,
2010-05-10, 01:40:04,VALID,996.738,VALID,0,VALID,89.1063,VALID,0.112286,VALID,25.0479,VALID,165,VALID,0.547266,
2010-05-10, 01:41:04,VALID,996.731,VALID,0,VALID,89.0682,VALID,0,VALID,25.0479,VALID,171,VALID,0.737109,
2010-05-10, 01:42:04,VALID,996.724,VALID,0,VALID,88.9766,VALID,0,VALID,25.0674,VALID,173,VALID,1.0293,
2010-05-10, 01:43:04,VALID,996.714,VALID,0,VALID,88.8164,VALID,0,VALID,25.1064,VALID,176,VALID,1.09102,
2010-05-10, 01:44:04,VALID,996.714,VALID,0,VALID,88.4731,VALID,0,VALID,25.1241,VALID,174,VALID,0.961328,
2010-05-10, 01:45:04,VALID,996.719,VALID,0,VALID,88.4197,VALID,0,VALID,25.1436,VALID,182,VALID,0.920703,
2010-05-10, 01:46:04,VALID,996.704,VALID,0,VALID,88.2671,VALID,0,VALID,25.2021,VALID,209,VALID,1.08086,
2010-05-10, 01:47:04,VALID,996.701,VALID,0,VALID,87.9848,VALID,0,VALID,25.2412,VALID,223,VALID,0.599219,
2010-05-10, 01:48:04,VALID,996.708,VALID,0,VALID,87.8932,VALID,0,VALID,25.2607,VALID,229,VALID,0.541797,
2010-05-10, 01:49:04,VALID,996.713,VALID,0,VALID,87.8474,VALID,0,VALID,25.2607,VALID,211,VALID,0.652344,
2010-05-10, 01:50:04,VALID,996.692,VALID,0,VALID,87.7254,VALID,0,VALID,25.2821,VALID,205,VALID,0.664063,
2010-05-10, 01:51:04,VALID,996.693,VALID,0,VALID,87.7177,VALID,0,VALID,25.2802,VALID,217,VALID,0.513281,
2010-05-10, 01:52:04,VALID,996.675,VALID,0,VALID,88.145,VALID,0,VALID,25.2607,VALID,242,VALID,0.447266,
2010-05-10, 01:53:04,VALID,996.679,VALID,0,VALID,88.3434,VALID,0,VALID,25.2431,VALID,242,VALID,0.367188,
2010-05-10, 01:54:04,VALID,996.664,VALID,0,VALID,88.5646,VALID,0,VALID,25.204,VALID,242,VALID,0.188281,
2010-05-10, 01:55:04,VALID,996.66,VALID,0,VALID,88.8011,VALID,0,VALID,25.1631,VALID,242,VALID,0.219922,
2010-05-10, 01:56:04,VALID,996.674,VALID,0,VALID,88.9309,VALID,0,VALID,25.165,VALID,242,VALID,0.581641,
2010-05-10, 01:57:04,VALID,996.645,VALID,0,VALID,89.1292,VALID,0,VALID,25.1455,VALID,255,VALID,0.7125,
2010-05-10, 01:58:04,VALID,996.622,VALID,0,VALID,89.3047,VALID,0,VALID,25.1064,VALID,254,VALID,0.398828,
2010-05-10, 01:59:04,VALID,996.605,VALID,0,VALID,89.4497,VALID,0,VALID,25.0869,VALID,254,VALID,0.445313,
2010-05-10, 02:00:04,VALID,996.614,VALID,0,VALID,89.587,VALID,0,VALID,25.0674,VALID,254,VALID,0.411328,
2010-05-10, 02:01:04,VALID,996.609,VALID,0,VALID,89.6557,VALID,0,VALID,25.0479,VALID,254,VALID,0.442578,
2010-05-10, 02:02:04,VALID,996.599,VALID,0,VALID,89.648,VALID,0,VALID,25.0284,VALID,264,VALID,0.290625,
2010-05-10, 02:03:04,VALID,996.597,VALID,0,VALID,89.7472,VALID,0,VALID,24.9893,VALID,264,VALID,0.260156,
2010-05-10, 02:04:04,VALID,996.586,VALID,0,VALID,89.8846,VALID,0,VALID,24.9484,VALID,264,VALID,0.307031,
2010-05-10, 02:05:04,VALID,996.596,VALID,0,VALID,90.1363,VALID,0,VALID,24.9503,VALID,264,VALID,0.195703,
2010-05-10, 02:06:04,VALID,996.617,VALID,0,VALID,90.3042,VALID,0,VALID,24.8917,VALID,264,VALID,0.0824219,
2010-05-10, 02:07:04,VALID,996.589,VALID,0,VALID,90.4415,VALID,0,VALID,24.8527,VALID,264,VALID,0,
2010-05-10, 02:08:04,VALID,996.576,VALID,0,VALID,90.5788,VALID,0,VALID,24.8332,VALID,264,VALID,0,
2010-05-10, 02:09:04,VALID,996.605,VALID,0,VALID,90.678,VALID,0,VALID,24.8136,VALID,264,VALID,0,
2010-05-10, 02:10:04,VALID,996.576,VALID,0,VALID,90.7467,VALID,0,VALID,24.7941,VALID,264,VALID,0,
2010-05-10, 02:11:04,VALID,996.576,VALID,0,VALID,90.8764,VALID,0,VALID,24.7746,VALID,264,VALID,0,
2010-05-10, 02:12:04,VALID,996.56,VALID,0,VALID,90.9146,VALID,0,VALID,24.7551,VALID,264,VALID,0.212891,
2010-05-10, 02:13:04,VALID,996.555,VALID,0,VALID,91.0443,VALID,0,VALID,24.7356,VALID,264,VALID,0.286328,
2010-05-10, 02:14:04,VALID,996.553,VALID,0,VALID,91.1206,VALID,0,VALID,24.716,VALID,264,VALID,0.495703,
2010-05-10, 02:15:04,VALID,996.54,VALID,0,VALID,91.0595,VALID,0,VALID,24.6751,VALID,264,VALID,0.433203,
2010-05-10, 02:16:04,VALID,996.543,VALID,0,VALID,91.2121,VALID,0,VALID,24.677,VALID,214,VALID,0.525781,
2010-05-10, 02:17:04,VALID,996.54,VALID,0,VALID,91.3723,VALID,0,VALID,24.6556,VALID,100,VALID,0.675781,
2010-05-10, 02:18:04,VALID,996.562,VALID,0,VALID,91.4791,VALID,0,VALID,24.677,VALID,100,VALID,0.617969,
2010-05-10, 02:19:04,VALID,996.547,VALID,0,VALID,91.5478,VALID,0,VALID,24.6751,VALID,100,VALID,0.735547,
2010-05-10, 02:20:04,VALID,996.565,VALID,0,VALID,91.4715,VALID,0,VALID,24.6965,VALID,88,VALID,0.695703,
2010-05-10, 02:21:04,VALID,996.509,VALID,0,VALID,91.3037,VALID,0,VALID,24.677,VALID,78,VALID,0.910156,
2010-05-10, 02:22:04,VALID,996.5,VALID,0,VALID,91.2503,VALID,0,VALID,24.6575,VALID,71,VALID,1.00234,
2010-05-10, 02:23:04,VALID,996.497,VALID,0,VALID,91.1587,VALID,0,VALID,24.638,VALID,64,VALID,1.03203,
2010-05-10, 02:24:04,VALID,996.467,VALID,0,VALID,91.09,VALID,0,VALID,24.638,VALID,61,VALID,1.08945,
2010-05-10, 02:25:04,VALID,996.454,VALID,0,VALID,91.1511,VALID,0,VALID,24.6166,VALID,59,VALID,0.928125,
2010-05-10, 02:26:04,VALID,996.465,VALID,0,VALID,91.1434,VALID,0,VALID,24.6184,VALID,59,VALID,0.642969,
2010-05-10, 02:27:04,VALID,996.468,VALID,0,VALID,91.2655,VALID,0,VALID,24.5971,VALID,58,VALID,0.905859,
2010-05-10, 02:28:04,VALID,996.444,VALID,0,VALID,91.441,VALID,0,VALID,24.6184,VALID,56,VALID,0.852344,
2010-05-10, 02:29:04,VALID,996.463,VALID,0,VALID,91.5249,VALID,0,VALID,24.6184,VALID,55,VALID,0.778906,
2010-05-10, 02:30:04,VALID,996.432,VALID,0,VALID,91.7004,VALID,0,VALID,24.5775,VALID,54,VALID,0.723828,
2010-05-10, 02:31:04,VALID,996.406,VALID,0,VALID,91.8072,VALID,0,VALID,24.6184,VALID,54,VALID,0.715625,
2010-05-10, 02:32:04,VALID,996.399,VALID,0,VALID,91.8225,VALID,0,VALID,24.5775,VALID,54,VALID,0.594141,
2010-05-10, 02:33:04,VALID,996.397,VALID,0,VALID,91.8606,VALID,0,VALID,24.5989,VALID,68,VALID,0.392578,
2010-05-10, 02:34:04,VALID,996.394,VALID,0,VALID,91.8988,VALID,0,VALID,24.5794,VALID,68,VALID,0.207813,
2010-05-10, 02:35:04,VALID,996.387,VALID,0,VALID,91.9217,VALID,0,VALID,24.558,VALID,68,VALID,0.421484,
2010-05-10, 02:36:04,VALID,996.388,VALID,0,VALID,91.9522,VALID,0,VALID,24.5385,VALID,68,VALID,0.390625,
2010-05-10, 02:37:04,VALID,996.39,VALID,0,VALID,91.9674,VALID,0,VALID,24.519,VALID,68,VALID,0.431641,
2010-05-10, 02:38:04,VALID,996.387,VALID,0,VALID,91.9751,VALID,0,VALID,24.5385,VALID,68,VALID,0.376953,
2010-05-10, 02:39:04,VALID,996.376,VALID,0,VALID,91.9522,VALID,0,VALID,24.5385,VALID,68,VALID,0.296875,
2010-05-10, 02:40:04,VALID,996.374,VALID,0,VALID,91.9522,VALID,0,VALID,24.5385,VALID,68,VALID,0,
2010-05-10, 02:41:04,VALID,996.345,VALID,0,VALID,91.9445,VALID,0,VALID,24.5599,VALID,68,VALID,0,
2010-05-10, 02:42:04,VALID,996.365,VALID,0,VALID,91.9217,VALID,0,VALID,24.5599,VALID,68,VALID,0,
2010-05-10, 02:43:04,VALID,996.342,VALID,0,VALID,91.9064,VALID,0,VALID,24.5404,VALID,68,VALID,0,
2010-05-10, 02:44:04,VALID,996.353,VALID,0,VALID,91.8454,VALID,0,VALID,24.5404,VALID,68,VALID,0,
2010-05-10, 02:45:04,VALID,996.346,VALID,0,VALID,91.8301,VALID,0,VALID,24.5209,VALID,68,VALID,0,
2010-05-10, 02:46:04,VALID,996.36,VALID,0,VALID,91.8148,VALID,0,VALID,24.519,VALID,68,VALID,0,
2010-05-10, 02:47:04,VALID,996.373,VALID,0,VALID,91.8301,VALID,0,VALID,24.5209,VALID,68,VALID,0,
2010-05-10, 02:48:04,VALID,996.352,VALID,0,VALID,91.8454,VALID,0,VALID,24.5013,VALID,68,VALID,0,
2010-05-10, 02:49:04,VALID,996.339,VALID,0,VALID,91.8759,VALID,0,VALID,24.5209,VALID,68,VALID,0,
2010-05-10, 02:50:04,VALID,996.345,VALID,0,VALID,91.8759,VALID,0,VALID,24.5013,VALID,68,VALID,0,
2010-05-10, 02:51:04,VALID,996.344,VALID,0,VALID,91.8988,VALID,0,VALID,24.5013,VALID,68,VALID,0,
2010-05-10, 02:52:04,VALID,996.332,VALID,0,VALID,91.9217,VALID,0,VALID,24.5209,VALID,68,VALID,0,
2010-05-10, 02:53:04,VALID,996.353,VALID,0,VALID,91.9217,VALID,0,VALID,24.5209,VALID,68,VALID,0,
2010-05-10, 02:54:04,VALID,996.325,VALID,0,VALID,91.9293,VALID,0,VALID,24.5404,VALID,68,VALID,0,
2010-05-10, 02:55:04,VALID,996.324,VALID,0,VALID,91.8301,VALID,0,VALID,24.5209,VALID,68,VALID,0,
2010-05-10, 02:56:04,VALID,996.309,VALID,0,VALID,91.7691,VALID,0,VALID,24.5209,VALID,68,VALID,0,
2010-05-10, 02:57:04,VALID,996.315,VALID,0,VALID,91.6851,VALID,0,VALID,24.5013,VALID,68,VALID,0,
2010-05-10, 02:58:04,VALID,996.313,VALID,0,VALID,91.6012,VALID,0,VALID,24.5209,VALID,68,VALID,0,
2010-05-10, 02:59:04,VALID,996.343,VALID,0,VALID,91.4944,VALID,0,VALID,24.5209,VALID,68,VALID,0,
2010-05-10, 03:00:05,VALID,996.343,VALID,0,VALID,91.38,VALID,0,VALID,24.5599,VALID,68,VALID,0,
2010-05-10, 03:01:05,VALID,996.339,VALID,0,VALID,91.235,VALID,0,VALID,24.558,VALID,68,VALID,0,
2010-05-10, 03:02:05,VALID,996.31,VALID,0,VALID,91.0671,VALID,0,VALID,24.5989,VALID,68,VALID,0,
2010-05-10, 03:03:05,VALID,996.335,VALID,0,VALID,90.8611,VALID,0,VALID,24.6166,VALID,70,VALID,0.268359,
2010-05-10, 03:04:05,VALID,996.308,VALID,0,VALID,90.617,VALID,0,VALID,24.677,VALID,84,VALID,0.428125,
2010-05-10, 03:05:05,VALID,996.299,VALID,0,VALID,90.3881,VALID,0,VALID,24.677,VALID,85,VALID,0.572266,
2010-05-10, 03:06:05,VALID,996.319,VALID,0,VALID,90.1592,VALID,0,VALID,24.716,VALID,98,VALID,0.976563,
2010-05-10, 03:07:05,VALID,996.283,VALID,0,VALID,89.9532,VALID,0,VALID,24.7551,VALID,103,VALID,0.914844,
2010-05-10, 03:08:05,VALID,996.304,VALID,0,VALID,89.8769,VALID,0,VALID,24.7746,VALID,104,VALID,0.720312,
2010-05-10, 03:09:05,VALID,996.307,VALID,0,VALID,89.7701,VALID,0,VALID,24.8136,VALID,104,VALID,0.626953,
2010-05-10, 03:10:05,VALID,996.301,VALID,0,VALID,89.8006,VALID,0,VALID,24.8136,VALID,104,VALID,0.475391,
2010-05-10, 03:11:05,VALID,996.316,VALID,0,VALID,89.8693,VALID,0,VALID,24.7941,VALID,104,VALID,0.311328,
2010-05-10, 03:12:05,VALID,996.329,VALID,0,VALID,89.8846,VALID,0,VALID,24.7941,VALID,104,VALID,0.176172,
2010-05-10, 03:13:05,VALID,996.336,VALID,0,VALID,89.9609,VALID,0,VALID,24.7746,VALID,104,VALID,0,
2010-05-10, 03:14:05,VALID,996.29,VALID,0,VALID,90.1363,VALID,0,VALID,24.7551,VALID,104,VALID,0,
2010-05-10, 03:15:05,VALID,996.313,VALID,0,VALID,90.1897,VALID,0,VALID,24.7356,VALID,104,VALID,0,
2010-05-10, 03:16:05,VALID,996.324,VALID,0,VALID,90.2126,VALID,0,VALID,24.716,VALID,104,VALID,0,
2010-05-10, 03:17:05,VALID,996.353,VALID,0,VALID,90.2584,VALID,0,VALID,24.6965,VALID,104,VALID,0,
2010-05-10, 03:18:05,VALID,996.313,VALID,0,VALID,90.4339,VALID,0,VALID,24.677,VALID,104,VALID,0,
2010-05-10, 03:19:05,VALID,996.316,VALID,0,VALID,90.5407,VALID,0,VALID,24.677,VALID,104,VALID,0,
2010-05-10, 03:20:05,VALID,996.31,VALID,0,VALID,90.5941,VALID,0,VALID,24.6556,VALID,104,VALID,0,
2010-05-10, 03:21:05,VALID,996.317,VALID,0,VALID,90.6704,VALID,0,VALID,24.6575,VALID,104,VALID,0,
2010-05-10, 03:22:05,VALID,996.305,VALID,0,VALID,90.8001,VALID,0,VALID,24.6361,VALID,104,VALID,0,
2010-05-10, 03:23:05,VALID,996.288,VALID,0,VALID,90.8306,VALID,0,VALID,24.677,VALID,104,VALID,0,
2010-05-10, 03:24:05,VALID,996.292,VALID,0,VALID,90.8917,VALID,0,VALID,24.6575,VALID,104,VALID,0,
2010-05-10, 03:25:05,VALID,996.28,VALID,0,VALID,90.884,VALID,0,VALID,24.6575,VALID,104,VALID,0,
2010-05-10, 03:26:05,VALID,996.277,VALID,0,VALID,90.8764,VALID,0,VALID,24.638,VALID,104,VALID,0,
2010-05-10, 03:27:05,VALID,996.251,VALID,0,VALID,90.8764,VALID,0,VALID,24.638,VALID,104,VALID,0,
2010-05-10, 03:28:05,VALID,996.252,VALID,0,VALID,90.884,VALID,0,VALID,24.6166,VALID,104,VALID,0,
2010-05-10, 03:29:05,VALID,996.252,VALID,0,VALID,90.9527,VALID,0,VALID,24.6184,VALID,104,VALID,0,
2010-05-10, 03:30:05,VALID,996.24,VALID,0,VALID,90.9756,VALID,0,VALID,24.6184,VALID,104,VALID,0,
2010-05-10, 03:31:05,VALID,996.241,VALID,0,VALID,91.0443,VALID,0,VALID,24.5989,VALID,104,VALID,0,
2010-05-10, 03:32:05,VALID,996.213,VALID,0,VALID,91.0137,VALID,0,VALID,24.6184,VALID,104,VALID,0,
2010-05-10, 03:33:05,VALID,996.25,VALID,0,VALID,90.9222,VALID,0,VALID,24.558,VALID,104,VALID,0,
2010-05-10, 03:34:05,VALID,996.208,VALID,0,VALID,90.884,VALID,0,VALID,24.5989,VALID,106,VALID,0.192188,
2010-05-10, 03:35:05,VALID,996.252,VALID,0,VALID,90.7009,VALID,0,VALID,24.6184,VALID,134,VALID,0.202344,
2010-05-10, 03:36:05,VALID,996.266,VALID,0,VALID,90.5331,VALID,0,VALID,24.6575,VALID,134,VALID,0.0304688,
2010-05-10, 03:37:05,VALID,996.263,VALID,0,VALID,90.3652,VALID,0,VALID,24.677,VALID,134,VALID,0,
2010-05-10, 03:38:05,VALID,996.267,VALID,0,VALID,90.3652,VALID,0,VALID,24.6361,VALID,134,VALID,0,
2010-05-10, 03:39:05,VALID,996.238,VALID,0,VALID,90.2737,VALID,0,VALID,24.677,VALID,134,VALID,0,
2010-05-10, 03:40:05,VALID,996.267,VALID,0,VALID,90.0753,VALID,0,VALID,24.6965,VALID,134,VALID,0,
2010-05-10, 03:41:05,VALID,996.238,VALID,0,VALID,89.8998,VALID,0,VALID,24.716,VALID,134,VALID,0,
2010-05-10, 03:42:05,VALID,996.255,VALID,0,VALID,89.7396,VALID,0,VALID,24.7551,VALID,134,VALID,0,
2010-05-10, 03:43:05,VALID,996.239,VALID,0,VALID,89.5031,VALID,0,VALID,24.7551,VALID,134,VALID,0,
2010-05-10, 03:44:05,VALID,996.256,VALID,0,VALID,89.2971,VALID,0,VALID,24.7746,VALID,134,VALID,0,
2010-05-10, 03:45:05,VALID,996.248,VALID,0,VALID,89.236,VALID,0,VALID,24.7941,VALID,134,VALID,0,
2010-05-10, 03:46:05,VALID,996.262,VALID,0,VALID,89.2055,VALID,0,VALID,24.7922,VALID,134,VALID,0,
2010-05-10, 03:47:05,VALID,996.271,VALID,0,VALID,89.2132,VALID,0,VALID,24.7922,VALID,134,VALID,0,
2010-05-10, 03:48:05,VALID,996.28,VALID,0,VALID,89.2742,VALID,0,VALID,24.7922,VALID,134,VALID,0,
2010-05-10, 03:49:05,VALID,996.256,VALID,0,VALID,89.3123,VALID,0,VALID,24.7941,VALID,134,VALID,0,
2010-05-10, 03:50:05,VALID,996.267,VALID,0,VALID,89.4191,VALID,0.112286,VALID,24.7727,VALID,134,VALID,0,